Find Starlink 32890

NORAD ID: 62896 Int'l Des: 2025-024 Owner: SPXS Country: US Constellation: starlink operational
LEOCIRCULAR

Live Position

Loading 3D Globe...

About Starlink 32890

Description loading...

Upcoming Passes

Passes for default location (London). Set your location on the main map for personalized predictions.

Altitude History

Loading altitude history...

Two-Line Element Set

1 62896U 25024T 26127.68089582 .00021904 00000-0 80297-3 0 9993
2 62896 43.0036 351.7167 0001862 262.0127 98.0514 15.27585515 71296
Epoch: May 7, 2026 • Age: 5 hours

Current Status

Altitude 482.2 km
Velocity 7.63 km/s
Sub-Earth Point 9.39°N, 32.07°W
Launch Date Feb 4, 2025
Age 1.2 years
Type internet

Technical Details

Classification Payload
Mass 730.00 kg
Dry Mass 700.00 kg
Total Mass 730.00 kg
Length 0.30 m
Diameter 4.10 m
Span 29.00 m
Shape Box + pan
Manufacturer SPXS
Bus Type Starlink V2M
Phase Status In Orbit
Owner/State SPXS/US

Most Searched